Location: Binningen
(47.7924°N, 8.7261°E)
Time: 20:32:30
(UTC+00:00)

Cosmos 1340 Rocket - Pass Details

Date: 17 May 2021
Orbit: 527 x 559 km, 81.2° (Epoch: 21 June)

Event Time Altitude Azimuth Distance (km) Brightness Sun altitude
Rises 20:10:35 0° 356° (N) 2,758 7.2 -10.3°
Reaches altitude 10° 20:12:56 10° 5° (N) 1,855 6.1 -10.6°
Maximum altitude 20:16:41 34° 72° (ENE) 929 3.8 -11.0°
Enters shadow 20:19:20 17° 130° (SE) 1,460 4.3 -11.3°
